Location: Melbourne
(37.8666°S, 145.1333°E)
Time: 12:44:11
(UTC+10:00)

Hubble Space Telescope - Visible Passes

Search period start: 25 August 2016 00:00
Search period end: 04 September 2016 00:00
Orbit: 539 x 543 km, 28.5° (Epoch: 24 August)

Date Brightness Start Highest point End Pass type
(mag) Time Alt. Az. Time Alt. Az. Time Alt. Az.
25 Aug 3.0 05:25:59 11° NNW 05:28:20 17° NNE 05:31:04 10° NE visible
26 Aug 2.8 05:16:52 15° NNW 05:18:29 19° N 05:21:27 10° NE visible
27 Aug 2.6 05:07:43 19° N 05:08:39 20° N 05:11:45 10° NE visible
28 Aug 2.5 04:58:32 21° N 04:58:48 21° N 05:02:00 10° NE visible
29 Aug 2.6 04:49:19 22° N 04:49:19 22° N 04:52:13 10° NE visible
30 Aug 2.7 04:40:06 20° NNE 04:40:06 20° NNE 04:42:24 10° NE visible
30 Aug 2.9 06:17:08 10° NW 06:19:47 16° NNW 06:22:25 10° NNE visible
31 Aug 3.0 04:30:54 18° NNE 04:30:54 18° NNE 04:32:32 10° NE visible
31 Aug 3.0 06:07:37 10° NW 06:09:54 14° NNW 06:12:11 10° NNE visible
01 Sep 3.3 04:21:43 14° NE 04:21:43 14° NE 04:22:38 10° NE visible
01 Sep 3.1 05:58:19 10° NW 06:00:01 12° NNW 06:01:44 10° N visible
02 Sep 3.7 04:12:35 10° NE 04:12:35 10° NE 04:12:40 10° NE visible
02 Sep 3.2 05:49:48 10° NNW 05:50:08 10° NNW 05:50:29 10° NNW visible
